Change the Weather History Date:

Saturday, November 30, 2013

  Actual Average Record
Temperature  
Mean Temperature 42 °F -  
Max Temperature 55 °F 48 °F 68 °F (1975)
Min Temperature 30 °F 31 °F 3 °F (1964)
Degree Days  
Heating Degree Days 22    
Moisture  
Dew Point 31 °F    
Average Humidity 64    
Maximum Humidity 83    
Minimum Humidity 42    
Precipitation  
Precipitation 0.00 in - - ()
Sea Level Pressure  
Sea Level Pressure 30.26 in    
Wind  
Wind Speed 7 mph (South)    
Max Wind Speed 17 mph    
Max Gust Speed 21 mph    
Visibility 10 miles    
Events      
Averages and records for this station are not official NWS values.
T = Trace of Precipitation, MM = Missing Value Source: NWS Daily Summary

Daily Weather History Graph

Daily Weather History Graph

Search for Another Location

Airport or City:

Trip Planner

Search our weather history database for the weather conditions in past years. The results will help you decide how hot, cold, wet, or windy it might be!

Date:

Astronomy

Nov. 30, 2013 Rise Set
Actual Time 6:54 AM CST 4:35 PM CST
Civil Twilight 6:24 AM CST 5:04 PM CST
Nautical Twilight 5:51 AM CST 5:37 PM CST
Astronomical Twilight 5:19 AM CST 6:09 PM CST
Moon 4:06 AM CST (11/30) 2:57 PM CST (11/30)
Length of Visible Light 10h 39m
Length of Day
9h 41m
Waning Crescent, 7% of the Moon is Illuminated
Nov 30
Waning Crescent
Dec 2
New
Dec 9
First Quarter
Dec 17
Full
Dec 25
Last Quarter

Hourly Weather History & Observations

Time (CST) Temp. Windchill Dew Point Humidity Pressure Visibility Wind Dir Wind Speed Gust Speed Precip Events Conditions
12:15 AM 36.0 °F 32.1 °F 27.5 °F 71% 30.41 in 10.0 mi SE 4.6 mph - N/A   Clear
12:35 AM 35.6 °F 31.7 °F 27.5 °F 72% 30.40 in 10.0 mi SE 4.6 mph - N/A   Clear
12:55 AM 35.6 °F 32.8 °F 27.5 °F 72% 30.41 in 10.0 mi SSE 3.5 mph - N/A   Clear
1:15 AM 35.1 °F 32.2 °F 27.5 °F 74% 30.41 in 10.0 mi SE 3.5 mph - N/A   Clear
1:35 AM 35.1 °F 31.0 °F 27.5 °F 74% 30.41 in 10.0 mi SE 4.6 mph - N/A   Clear
1:55 AM 34.7 °F 31.8 °F 27.3 °F 74% 30.41 in 10.0 mi SSE 3.5 mph - N/A   Clear
2:15 AM 34.0 °F 29.8 °F 27.3 °F 77% 30.40 in 10.0 mi SSE 4.6 mph - N/A   Clear
2:35 AM 33.6 °F 29.4 °F 27.3 °F 78% 30.40 in 10.0 mi SE 4.6 mph - N/A   Clear
2:55 AM 33.8 °F 30.8 °F 27.1 °F 77% 30.39 in 10.0 mi ESE 3.5 mph - N/A   Clear
3:15 AM 33.3 °F 28.9 °F 27.0 °F 78% 30.39 in 10.0 mi SE 4.6 mph - N/A   Clear
3:35 AM 32.5 °F 27.1 °F 27.0 °F 80% 30.38 in 10.0 mi SE 5.8 mph - N/A   Clear
3:55 AM 33.3 °F 27.9 °F 27.1 °F 78% 30.38 in 10.0 mi SE 5.8 mph - N/A   Clear
4:15 AM 33.3 °F 28.9 °F 27.1 °F 78% 30.37 in 10.0 mi SE 4.6 mph - N/A   Clear
4:35 AM 32.7 °F 29.6 °F 26.6 °F 78% 30.38 in 10.0 mi ESE 3.5 mph - N/A   Clear
4:55 AM 32.0 °F 27.5 °F 26.4 °F 80% 30.37 in 10.0 mi SE 4.6 mph - N/A   Clear
5:15 AM 32.0 °F - 26.6 °F 80% 30.37 in 10.0 mi Calm Calm - N/A   Clear
5:35 AM 32.0 °F 27.5 °F 26.6 °F 80% 30.36 in 10.0 mi SE 4.6 mph - N/A   Clear
5:55 AM 32.0 °F 27.5 °F 26.6 °F 80% 30.36 in 10.0 mi SE 4.6 mph - N/A   Clear
6:15 AM 32.2 °F 28.9 °F 26.6 °F 80% 30.36 in 10.0 mi SE 3.5 mph - N/A   Clear
6:35 AM 32.0 °F 28.7 °F 26.4 °F 80% 30.36 in 10.0 mi SE 3.5 mph - N/A   Clear
6:55 AM 30.9 °F 26.2 °F 26.2 °F 83% 30.35 in 10.0 mi SE 4.6 mph - N/A   Clear
7:15 AM 31.6 °F 27.0 °F 26.4 °F 81% 30.35 in 10.0 mi SE 4.6 mph - N/A   Clear
7:35 AM 32.4 °F 27.9 °F 27.0 °F 80% 30.35 in 10.0 mi SE 4.6 mph - N/A   Clear
7:55 AM 33.8 °F 27.0 °F 27.5 °F 78% 30.35 in 10.0 mi SSE 8.1 mph - N/A   Clear
8:15 AM 35.1 °F 30.1 °F 27.9 °F 75% 30.35 in 10.0 mi SSE 5.8 mph - N/A   Clear
8:35 AM 36.9 °F 31.4 °F 28.9 °F 73% 30.35 in 10.0 mi South 6.9 mph - N/A   Clear
8:55 AM 39.4 °F 35.2 °F 30.4 °F 70% 30.34 in 10.0 mi South 5.8 mph - N/A   Clear
9:15 AM 41.9 °F 36.3 °F 31.3 °F 66% 30.33 in 10.0 mi South 9.2 mph - N/A   Clear
9:35 AM 43.5 °F 37.5 °F 31.8 °F 63% 30.32 in 10.0 mi South 11.5 mph - N/A   Clear
9:55 AM 45.0 °F 39.3 °F 32.0 °F 60% 30.32 in 10.0 mi South 11.5 mph - N/A   Clear
10:15 AM 46.6 °F - 32.2 °F 57% 30.32 in 10.0 mi South 9.2 mph - N/A   Clear
10:35 AM 48.2 °F - 32.0 °F 54% 30.30 in 10.0 mi SSW 11.5 mph 19.6 mph N/A   Clear
10:55 AM 50.0 °F - 32.5 °F 51% 30.30 in 10.0 mi South 9.2 mph - N/A   Clear
11:15 AM 50.9 °F - 32.5 °F 49% 30.28 in 10.0 mi SSW 12.7 mph 17.3 mph N/A   Clear
11:35 AM 52.0 °F - 33.3 °F 49% 30.27 in 10.0 mi SW 15.0 mph - N/A   Clear
11:55 AM 52.3 °F - 33.3 °F 48% 30.26 in 10.0 mi SSW 17.3 mph 20.7 mph N/A   Clear
12:15 PM 52.7 °F - 33.1 °F 47% 30.24 in 10.0 mi SSW 13.8 mph - N/A   Clear
12:35 PM 53.1 °F - 32.9 °F 46% 30.23 in 10.0 mi South 12.7 mph - N/A   Clear
12:55 PM 53.8 °F - 32.9 °F 45% 30.22 in 10.0 mi SSW 12.7 mph 17.3 mph N/A   Clear
1:15 PM 53.8 °F - 33.3 °F 46% 30.21 in 10.0 mi South 11.5 mph - N/A   Clear
1:35 PM 54.0 °F - 32.7 °F 45% 30.19 in 10.0 mi South 10.4 mph 17.3 mph N/A   Clear
1:55 PM 55.0 °F - 33.1 °F 43% 30.18 in 10.0 mi SSW 11.5 mph - N/A   Clear
2:15 PM 55.2 °F - 32.2 °F 42% 30.17 in 10.0 mi South 12.7 mph 18.4 mph N/A   Clear
2:35 PM 54.7 °F - 32.4 °F 43% 30.16 in 10.0 mi South 13.8 mph - N/A   Clear
2:55 PM 54.7 °F - 32.0 °F 42% 30.16 in 10.0 mi South 13.8 mph 19.6 mph N/A   Clear
3:15 PM 54.5 °F - 32.0 °F 42% 30.16 in 10.0 mi South 12.7 mph - N/A   Clear
3:35 PM 54.0 °F - 32.7 °F 45% 30.15 in 10.0 mi South 11.5 mph - N/A   Clear
3:55 PM 53.6 °F - 32.5 °F 45% 30.15 in 10.0 mi South 9.2 mph - N/A   Clear
4:15 PM 52.7 °F - 32.5 °F 46% 30.14 in 10.0 mi South 8.1 mph - N/A   Clear
4:35 PM 52.2 °F - 32.0 °F 46% 30.14 in 10.0 mi South 10.4 mph - N/A   Clear
4:55 PM 51.3 °F - 32.0 °F 48% 30.14 in 10.0 mi SSE 6.9 mph - N/A   Clear
5:15 PM 50.7 °F - 31.8 °F 48% 30.13 in 10.0 mi SSE 10.4 mph - N/A   Clear
5:35 PM 49.3 °F - 31.8 °F 51% 30.14 in 10.0 mi South 8.1 mph - N/A   Clear
5:55 PM 48.7 °F - 31.8 °F 52% 30.14 in 10.0 mi South 9.2 mph - N/A   Clear
6:15 PM 48.2 °F - 32.0 °F 54% 30.15 in 10.0 mi South 9.2 mph - N/A   Clear
6:35 PM 45.9 °F 41.7 °F 32.4 °F 59% 30.15 in 10.0 mi SSW 8.1 mph - N/A   Clear
6:55 PM 45.3 °F 41.1 °F 32.9 °F 62% 30.16 in 10.0 mi South 8.1 mph - N/A   Clear
7:15 PM 45.5 °F 41.8 °F 32.9 °F 61% 30.16 in 10.0 mi South 6.9 mph - N/A   Clear
7:35 PM 45.7 °F 42.0 °F 33.1 °F 61% 30.16 in 10.0 mi South 6.9 mph - N/A   Clear
7:55 PM 44.6 °F 39.7 °F 33.4 °F 65% 30.15 in 10.0 mi South 9.2 mph - N/A   Clear
8:15 PM 44.8 °F 40.4 °F 34.0 °F 66% 30.15 in 10.0 mi South 8.1 mph - N/A   Clear
8:35 PM 44.2 °F 39.2 °F 34.2 °F 68% 30.15 in 10.0 mi South 9.2 mph - N/A   Clear
8:55 PM 43.5 °F 38.9 °F 34.5 °F 71% 30.15 in 10.0 mi South 8.1 mph - N/A   Clear
9:15 PM 43.7 °F 38.6 °F 34.7 °F 71% 30.15 in 10.0 mi South 9.2 mph - N/A   Clear
9:35 PM 43.5 °F 37.9 °F 35.1 °F 72% 30.15 in 10.0 mi SSW 10.4 mph - N/A   Clear
9:55 PM 43.9 °F 37.9 °F 35.6 °F 73% 30.14 in 10.0 mi SSW 11.5 mph - N/A   Clear
10:15 PM 44.4 °F 38.6 °F 35.8 °F 72% 30.14 in 10.0 mi SSW 11.5 mph - N/A   Clear
10:35 PM 44.4 °F 38.6 °F 35.8 °F 72% 30.14 in 10.0 mi SSW 11.5 mph - N/A   Clear
10:55 PM 44.4 °F 38.6 °F 36.0 °F 72% 30.14 in 10.0 mi SSW 11.5 mph - N/A   Clear
11:15 PM 43.9 °F 38.3 °F 36.0 °F 74% 30.14 in 10.0 mi SSW 10.4 mph - N/A   Clear
11:35 PM 43.3 °F 38.1 °F 35.8 °F 75% 30.14 in 10.0 mi SSW 9.2 mph - N/A   Clear
11:55 PM 41.4 °F 36.8 °F 35.1 °F 78% 30.14 in 10.0 mi South 6.9 mph - N/A   Clear